Time_in_sec,Latitude,Longitude,Altitude,Nbsat_max_qualitysignal,Nbsat_locked,valid_data
1314270437.00044537,-0.00008488,0.00008920,812.09173584,0,0,0
1314270610.34952497,-0.00007279,0.00007744,242.49903870,0,0,0
1314270610.40046215,-0.00007271,0.00007741,242.27998352,0,0,0
1314270610.45271802,-0.00007279,0.00007743,242.06167603,0,0,0
1314270610.50059867,-0.00007271,0.00007740,241.84254456,0,0,0
1314270610.55250931,-0.00007279,0.00007742,241.62416077,0,0,0
1314270610.60071754,-0.00007270,0.00007739,241.40496826,0,0,0
1314270610.65245152,-0.00007278,0.00007741,241.18652344,0,0,0
1314270610.70153403,-0.00007270,0.00007738,240.96723938,0,0,0
1314270610.75041556,-0.00007278,0.00007741,240.74871826,0,0,0
1314270610.80148625,-0.00007270,0.00007738,240.52937317,0,0,0
1314270610.85352087,-0.00007278,0.00007740,240.31079102,0,0,0
1314270610.90281940,-0.00007269,0.00007737,240.09140015,0,0,0
1314270610.95248342,-0.00007277,0.00007739,239.87275696,0,0,0
1314270611.00046587,-0.00007269,0.00007736,239.65330505,0,0,0
1314270611.05249524,-0.00007277,0.00007738,239.43461609,0,0,0
1314270611.10049915,-0.00007269,0.00007736,239.21510315,0,0,0
1314270611.15024853,-0.00007277,0.00007738,238.99633789,0,0,0
1314270611.20150685,-0.00007268,0.00007735,238.77674866,0,0,0
1314270611.25248408,-0.00007276,0.00007737,238.55790710,0,0,0
1314270611.30045724,-0.00007268,0.00007734,238.33824158,0,0,0
1314270611.35251474,-0.00007276,0.00007736,238.11933899,0,0,0
1314270611.40050983,-0.00007268,0.00007733,237.89961243,0,0,0
1314270611.45248342,-0.00007276,0.00007736,237.68064880,0,0,0
1314270611.50049853,-0.00007267,0.00007733,237.46087646,0,0,0
1314270611.54932570,-0.00007275,0.00007735,237.24183655,0,0,0
1314270611.60159469,-0.00007267,0.00007732,237.02200317,0,0,0
1314270611.65264535,-0.00007275,0.00007734,236.80291748,0,0,0
1314270611.70448232,-0.00007267,0.00007731,236.58303833,0,0,0
1314270611.75247693,-0.00007274,0.00007734,236.36389160,0,0,0
1314270611.80548096,-0.00007266,0.00007731,236.14395142,0,0,0
1314270611.85245895,-0.00007274,0.00007733,235.92475891,0,0,0
1314270611.90086555,-0.00007266,0.00007730,235.70477295,0,0,0
1314270611.94948673,-0.00007274,0.00007732,235.48553467,0,0,0
1314270612.00047016,-0.00007266,0.00007729,235.26548767,0,0,0
1314270612.05027914,-0.00007273,0.00007731,235.04617310,0,0,0
1314270612.10448647,-0.00007266,0.00007728,234.82606506,0,0,0
1314270612.15254188,-0.00007273,0.00007731,234.60668945,0,0,0
1314270612.20143318,-0.00007265,0.00007728,234.38655090,0,0,0
1314270612.25246406,-0.00007273,0.00007730,234.16711426,0,0,0
1314270612.30160403,-0.00007265,0.00007727,233.94688416,0,0,0
1314270612.35248256,-0.00007272,0.00007729,233.72738647,0,0,0
1314270612.40184736,-0.00007265,0.00007726,233.50709534,0,0,0
1314270612.45245290,-0.00007272,0.00007729,233.28753662,0,0,0
1314270612.50048018,-0.00007264,0.00007726,233.06719971,0,0,0
1314270612.55305362,-0.00007272,0.00007728,232.84757996,0,0,0
1314270612.60174489,-0.00007264,0.00007725,232.62719727,0,0,0
1314270612.65348649,-0.00007272,0.00007727,232.40751648,0,0,0
1314270612.70109320,-0.00007264,0.00007724,232.18705750,0,0,0
1314270612.74968982,-0.00007271,0.00007727,231.96730042,0,0,0
1314270612.80058289,-0.00007264,0.00007724,231.74679565,0,0,0
1314270612.85259199,-0.00007271,0.00007726,231.52699280,0,0,0
1314270612.90044689,-0.00007263,0.00007723,231.30642700,0,0,0
1314270612.95247340,-0.00007271,0.00007725,231.08656311,0,0,0
1314270613.00172043,-0.00007263,0.00007722,230.86593628,0,0,0
1314270613.05244017,-0.00007270,0.00007724,230.64601135,0,0,0
1314270613.10049987,-0.00007263,0.00007721,230.42532349,0,0,0
1314270613.14954734,-0.00007270,0.00007724,230.20533752,0,0,0
1314270613.20152521,-0.00007263,0.00007721,229.98460388,0,0,0
1314270613.25248122,-0.00007270,0.00007723,229.76454163,0,0,0
1314270613.30045080,-0.00007262,0.00007720,229.54371643,0,0,0
1314270613.35359168,-0.00007270,0.00007722,229.32359314,0,0,0
1314270613.40149069,-0.00007262,0.00007719,229.10270691,0,0,0
1314270613.45243907,-0.00007269,0.00007722,228.88252258,0,0,0
1314270613.50156760,-0.00007262,0.00007719,228.66157532,0,0,0
1314270613.55243325,-0.00007269,0.00007721,228.44132996,0,0,0
1314270613.60051560,-0.00007262,0.00007718,228.22033691,0,0,0
1314270613.65248275,-0.00007269,0.00007720,228.00001526,0,0,0
1314270613.70383739,-0.00007261,0.00007717,227.77893066,0,0,0
1314270613.75247812,-0.00007269,0.00007720,227.55853271,0,0,0
1314270613.80247426,-0.00007261,0.00007716,227.33738708,0,0,0
1314270613.85244346,-0.00007268,0.00007719,227.11692810,0,0,0
1314270613.90160561,-0.00007261,0.00007716,226.89572144,0,0,0
1314270613.94978046,-0.00007268,0.00007718,226.67518616,0,0,0
1314270614.00160360,-0.00007261,0.00007715,226.45393372,0,0,0
1314270614.04947424,-0.00007268,0.00007717,226.23336792,0,0,0
1314270614.10050559,-0.00007261,0.00007714,226.01203918,0,0,0
1314270614.15359402,-0.00007268,0.00007717,225.79138184,0,0,0
1314270614.20147133,-0.00007260,0.00007714,225.56999207,0,0,0
1314270614.25246787,-0.00007267,0.00007716,225.34927368,0,0,0
1314270614.30160379,-0.00007260,0.00007713,225.12783813,0,0,0
1314270614.34959269,-0.00007267,0.00007715,224.90704346,0,0,0
1314270614.40048623,-0.00007260,0.00007712,224.68553162,0,0,0
1314270614.44959950,-0.00007267,0.00007715,224.46469116,0,0,0
1314270614.50056171,-0.00007260,0.00007711,224.24313354,0,0,0
1314270614.54955769,-0.00007267,0.00007714,224.02223206,0,0,0
1314270614.60147119,-0.00007260,0.00007711,223.80059814,0,0,0
1314270614.65345764,-0.00007267,0.00007713,223.57962036,0,0,0
1314270614.70111561,-0.00007259,0.00007710,223.35792542,0,0,0
1314270614.75000048,-0.00007266,0.00007713,223.13690186,0,0,0
1314270614.80047011,-0.00007259,0.00007709,222.91516113,0,0,0
1314270614.85402584,-0.00007266,0.00007712,222.69406128,0,0,0
1314270614.89958477,-0.00007259,0.00007709,222.47222900,0,0,0
1314270614.95349050,-0.00007266,0.00007711,222.25106812,0,0,0
1314270615.00145507,-0.00007259,0.00007708,222.02917480,0,0,0
1314270615.05243969,-0.00007266,0.00007711,221.80793762,0,0,0
1314270615.10049224,-0.00007259,0.00007707,221.58598328,0,0,0
1314270615.14985847,-0.00007266,0.00007710,221.36465454,0,0,0
1314270615.20067573,-0.00007259,0.00007706,221.14260864,0,0,0
1314270615.25258708,-0.00007265,0.00007709,220.92118835,0,0,0
1314270615.30188608,-0.00007258,0.00007706,220.69905090,0,0,0
1314270615.35360050,-0.00007265,0.00007708,220.47753906,0,0,0
1314270615.40054059,-0.00007258,0.00007705,220.25532532,0,0,0
1314270615.45257711,-0.00007265,0.00007708,220.03375244,0,0,0
1314270615.50049567,-0.00007258,0.00007704,219.81147766,0,0,0
1314270615.54986000,-0.00007265,0.00007707,219.58985901,0,0,0
1314270615.60096383,-0.00007258,0.00007704,219.36752319,0,0,0
1314270615.65247917,-0.00007265,0.00007706,219.14582825,0,0,0
1314270615.70283294,-0.00007258,0.00007703,218.92344666,0,0,0
1314270615.75360274,-0.00007265,0.00007706,218.70170593,0,0,0
1314270615.80179310,-0.00007258,0.00007702,218.47927856,0,0,0
1314270615.85244083,-0.00007264,0.00007705,218.25747681,0,0,0
1314270615.90152860,-0.00007258,0.00007701,218.03497314,0,0,0
1314270615.95244861,-0.00007264,0.00007704,217.81311035,0,0,0
1314270616.00148392,-0.00007258,0.00007701,217.59054565,0,0,0
1314270616.04963541,-0.00007264,0.00007704,217.36860657,0,0,0
1314270616.10051680,-0.00007258,0.00007700,217.14598083,0,0,0
1314270616.15247464,-0.00007264,0.00007703,216.92398071,0,0,0
1314270616.20054388,-0.00007257,0.00007699,216.70130920,0,0,0
1314270616.25348306,-0.00007264,0.00007702,216.47923279,0,0,0
1314270616.30047369,-0.00007257,0.00007699,216.25650024,0,0,0
1314270616.34944439,-0.00007264,0.00007701,216.03439331,0,0,0
1314270616.40065908,-0.00007257,0.00007698,215.81163025,0,0,0
1314270616.45360017,-0.00007264,0.00007701,215.58949280,0,0,0
1314270616.50147009,-0.00007257,0.00007697,215.36666870,0,0,0
1314270616.55245328,-0.00007263,0.00007700,215.14448547,0,0,0
1314270616.60047221,-0.00007257,0.00007696,214.92164612,0,0,0
1314270616.64947748,-0.00007263,0.00007699,214.69941711,0,0,0
1314270616.70148802,-0.00007257,0.00007696,214.47650146,0,0,0
1314270616.75037813,-0.00007263,0.00007699,214.25416565,0,0,0
1314270616.80046773,-0.00007257,0.00007695,214.03118896,0,0,0
1314270616.85246086,-0.00007263,0.00007698,213.80877686,0,0,0
1314270616.90447593,-0.00007257,0.00007694,213.58567810,0,0,0
1314270616.94945526,-0.00007263,0.00007697,213.36317444,0,0,0
1314270617.00143838,-0.00007257,0.00007694,213.13996887,0,0,0
1314270617.05246639,-0.00007263,0.00007697,212.91734314,0,0,0
1314270617.10045934,-0.00007256,0.00007693,212.69406128,0,0,0
1314270617.15038896,-0.00007263,0.00007696,212.47137451,0,0,0
1314270617.20044422,-0.00007256,0.00007692,212.24801636,0,0,0
1314270617.24959421,-0.00007263,0.00007695,212.02523804,0,0,0
1314270617.30160999,-0.00007256,0.00007692,211.80180359,0,0,0
1314270617.35249329,-0.00007262,0.00007695,211.57893372,0,0,0
1314270617.40047359,-0.00007256,0.00007691,211.35542297,0,0,0
1314270617.45245719,-0.00007262,0.00007694,211.13252258,0,0,0
1314270617.50048685,-0.00007256,0.00007690,210.90896606,0,0,0
1314270617.55015254,-0.00007262,0.00007694,210.68600464,0,0,0
1314270617.60067177,-0.00007256,0.00007690,210.46238708,0,0,0
1314270617.64953804,-0.00007262,0.00007693,210.23936462,0,0,0
1314270617.70409679,-0.00007256,0.00007689,210.01568604,0,0,0
1314270617.75349188,-0.00007262,0.00007692,209.79255676,0,0,0
1314270617.80546236,-0.00007256,0.00007688,209.56880188,0,0,0
1314270617.85246301,-0.00007262,0.00007692,209.34559631,0,0,0
1314270617.90062404,-0.00007256,0.00007688,209.12176514,0,0,0
1314270617.95401120,-0.00007262,0.00007691,208.89849854,0,0,0
1314270618.00067353,-0.00007256,0.00007687,208.67457581,0,0,0
1314270618.05359125,-0.00007262,0.00007690,208.45123291,0,0,0
1314270618.10048914,-0.00007256,0.00007686,208.22724915,0,0,0
1314270618.14995003,-0.00007261,0.00007690,208.00384521,0,0,0
1314270618.20046425,-0.00007255,0.00007686,207.77981567,0,0,0
1314270618.25349188,-0.00007261,0.00007689,207.55635071,0,0,0
1314270618.30054426,-0.00007255,0.00007685,207.33227539,0,0,0
1314270618.34988141,-0.00007261,0.00007688,207.10873413,0,0,0
1314270618.40051126,-0.00007255,0.00007684,206.88456726,0,0,0
1314270618.45345950,-0.00007261,0.00007688,206.66098022,0,0,0
1314270618.50449347,-0.00007255,0.00007684,206.43676758,0,0,0
1314270618.55249977,-0.00007261,0.00007687,206.21308899,0,0,0
1314270618.60146308,-0.00007255,0.00007683,205.98878479,0,0,0
1314270618.65244055,-0.00007261,0.00007686,205.76502991,0,0,0
1314270618.70048094,-0.00007255,0.00007682,205.54067993,0,0,0
1314270618.74972773,-0.00007261,0.00007686,205.31686401,0,0,0
1314270618.80055881,-0.00007255,0.00007682,205.09242249,0,0,0
1314270618.85258412,-0.00007261,0.00007685,204.86853027,0,0,0
1314270618.90421176,-0.00007255,0.00007681,204.64402771,0,0,0
1314270618.95250297,-0.00007261,0.00007684,204.42004395,0,0,0
1314270619.00555611,-0.00007255,0.00007681,204.19544983,0,0,0
1314270619.05246091,-0.00007261,0.00007684,203.97138977,0,0,0
1314270619.10150576,-0.00007255,0.00007680,203.74671936,0,0,0
1314270619.14961863,-0.00007261,0.00007683,203.52259827,0,0,0
1314270619.20161366,-0.00007255,0.00007679,203.29785156,0,0,0
1314270619.25349259,-0.00007260,0.00007683,203.07362366,0,0,0
1314270619.30374885,-0.00007255,0.00007679,202.84878540,0,0,0
1314270619.35358763,-0.00007260,0.00007682,202.62446594,0,0,0
1314270619.40155244,-0.00007255,0.00007678,202.39955139,0,0,0
1314270619.45247722,-0.00007260,0.00007681,202.17517090,0,0,0
1314270619.50051713,-0.00007255,0.00007677,201.95018005,0,0,0
1314270619.54948902,-0.00007260,0.00007681,201.72572327,0,0,0
1314270619.60048175,-0.00007255,0.00007677,201.50067139,0,0,0
1314270619.64958119,-0.00007260,0.00007680,201.27613831,0,0,0
1314270619.69996786,-0.00007254,0.00007676,201.05102539,0,0,0
1314270619.75354886,-0.00007260,0.00007679,200.82643127,0,0,0
1314270619.80196595,-0.00007254,0.00007675,200.60124207,0,0,0
1314270619.85244441,-0.00007260,0.00007679,200.37657166,0,0,0
1314270619.90150309,-0.00007254,0.00007675,200.15129089,0,0,0
1314270619.95014262,-0.00007260,0.00007678,199.92654419,0,0,0
1314270620.00047421,-0.00007254,0.00007674,199.70120239,0,0,0
1314270620.05352759,-0.00007260,0.00007678,199.47637939,0,0,0
1314270620.10235143,-0.00007254,0.00007674,199.25096130,0,0,0
1314270620.15359354,-0.00007260,0.00007677,199.02606201,0,0,0
1314270620.20145392,-0.00007254,0.00007673,198.80058289,0,0,0
1314270620.25283861,-0.00007260,0.00007676,198.57562256,0,0,0
1314270620.30048490,-0.00007254,0.00007672,198.35008240,0,0,0
1314270620.34966373,-0.00007260,0.00007676,198.12504578,0,0,0
1314270620.40061808,-0.00007254,0.00007672,197.89942932,0,0,0
1314270620.44999290,-0.00007260,0.00007675,197.67431641,0,0,0
1314270620.50046682,-0.00007254,0.00007671,197.44860840,0,0,0
1314270620.54949880,-0.00007259,0.00007675,197.22341919,0,0,0
1314270620.60448527,-0.00007254,0.00007670,196.99765015,0,0,0
1314270620.64049721,-0.00007259,0.00007674,196.77238464,0,0,0
1314270620.70083141,-0.00007259,0.00007674,196.59191895,0,0,0
1314270620.75243926,-0.00007259,0.00007673,196.32116699,0,0,0
1314270620.80087209,-0.00007254,0.00007669,196.09526062,0,0,0
1314270620.85360289,-0.00007259,0.00007673,195.86984253,0,0,0
1314270620.90067410,-0.00007254,0.00007668,195.64385986,0,0,0
1314270620.95361447,-0.00007259,0.00007672,195.41839600,0,0,0
1314270621.00048900,-0.00007254,0.00007668,195.19233704,0,0,0
1314270621.05262399,-0.00007259,0.00007671,194.96679688,0,0,0
1314270621.10074186,-0.00007254,0.00007667,194.74066162,0,0,0
1314270621.14990997,-0.00007259,0.00007671,194.51502991,0,0,0
1314270621.20048380,-0.00007254,0.00007667,194.28884888,0,0,0
1314270621.25262713,-0.00007259,0.00007670,194.06315613,0,0,0
1314270621.30148172,-0.00007254,0.00007666,193.83688354,0,0,0
1314270621.35359359,-0.00007259,0.00007670,193.61111450,0,0,0
1314270621.40146971,-0.00007254,0.00007665,193.38478088,0,0,0
1314270621.45246720,-0.00007259,0.00007669,193.15896606,0,0,0
1314270621.50055885,-0.00007254,0.00007665,192.93257141,0,0,0
1314270621.54977703,-0.00007259,0.00007668,192.70669556,0,0,0
1314270621.60090852,-0.00007254,0.00007664,192.48023987,0,0,0
1314270621.65352178,-0.00007259,0.00007668,192.25430298,0,0,0
1314270621.70449281,-0.00007254,0.00007663,192.02781677,0,0,0
1314270621.75257921,-0.00007259,0.00007667,191.80181885,0,0,0
1314270621.80046439,-0.00007254,0.00007663,191.57525635,0,0,0
1314270621.85246420,-0.00007259,0.00007666,191.34916687,0,0,0
1314270621.90110207,-0.00007254,0.00007662,191.12252808,0,0,0
1314270621.94964671,-0.00007259,0.00007666,190.89636230,0,0,0
1314270622.00153041,-0.00007254,0.00007661,190.66963196,0,0,0
1314270622.05245900,-0.00007259,0.00007665,190.44337463,0,0,0
1314270622.10276222,-0.00007254,0.00007661,190.21658325,0,0,0
1314270622.15345645,-0.00007259,0.00007665,189.99024963,0,0,0
1314270622.20164800,-0.00007254,0.00007660,189.76338196,0,0,0
1314270622.25246239,-0.00007259,0.00007664,189.53700256,0,0,0
1314270622.30164289,-0.00007255,0.00007659,189.31007385,0,0,0
1314270622.34952831,-0.00007259,0.00007663,189.08360291,0,0,0
1314270622.40049791,-0.00007255,0.00007659,188.85658264,0,0,0
1314270622.44950128,-0.00007259,0.00007663,188.63003540,0,0,0
1314270622.50450039,-0.00007255,0.00007658,188.40293884,0,0,0
1314270622.55246782,-0.00007259,0.00007662,188.17631531,0,0,0
1314270622.60147762,-0.00007255,0.00007658,187.94912720,0,0,0
1314270622.65255761,-0.00007259,0.00007662,187.72241211,0,0,0
1314270622.70047855,-0.00007255,0.00007657,187.49514771,0,0,0
1314270622.75048399,-0.00007260,0.00007661,187.26835632,0,0,0
1314270622.80048275,-0.00007255,0.00007656,187.04104614,0,0,0
1314270622.85351729,-0.00007260,0.00007660,186.81417847,0,0,0
1314270622.90048218,-0.00007255,0.00007656,186.58679199,0,0,0
1314270622.95248866,-0.00007260,0.00007660,186.35986328,0,0,0
1314270623.00100875,-0.00007255,0.00007655,186.13241577,0,0,0
1314270623.05084467,-0.00007260,0.00007659,185.90541077,0,0,0
1314270623.10047269,-0.00007255,0.00007654,185.67788696,0,0,0
1314270623.15018392,-0.00007260,0.00007658,185.45080566,0,0,0
1314270623.20048308,-0.00007255,0.00007654,185.22320557,0,0,0
1314270623.24928212,-0.00007260,0.00007658,184.99606323,0,0,0
1314270623.30447197,-0.00007255,0.00007653,184.76838684,0,0,0
1314270623.35360670,-0.00007260,0.00007657,184.54116821,0,0,0
1314270623.40147209,-0.00007255,0.00007652,184.31343079,0,0,0
1314270623.45243788,-0.00007260,0.00007657,184.08612061,0,0,0
1314270623.50097275,-0.00007255,0.00007652,183.85830688,0,0,0
1314270623.54945135,-0.00007260,0.00007656,183.63093567,0,0,0
1314270623.60045695,-0.00007255,0.00007651,183.40306091,0,0,0
1314270623.65360355,-0.00007260,0.00007655,183.17562866,0,0,0
1314270623.70448422,-0.00007256,0.00007651,182.94767761,0,0,0
1314270623.74962783,-0.00007260,0.00007655,182.72018433,0,0,0
1314270623.80098701,-0.00007256,0.00007650,182.49218750,0,0,0
1314270623.85348940,-0.00007260,0.00007654,182.26461792,0,0,0
1314270623.90151286,-0.00007256,0.00007649,182.03656006,0,0,0
1314270623.95394492,-0.00007260,0.00007654,181.80892944,0,0,0
1314270624.00167155,-0.00007256,0.00007649,181.58081055,0,0,0
1314270624.05359292,-0.00007260,0.00007653,181.35310364,0,0,0
1314270624.10465145,-0.00007256,0.00007648,181.12489319,0,0,0
1314270624.15249658,-0.00007260,0.00007652,180.89710999,0,0,0
1314270624.20144558,-0.00007256,0.00007647,180.66882324,0,0,0
1314270624.25247931,-0.00007260,0.00007652,180.44093323,0,0,0
1314270624.30160332,-0.00007256,0.00007647,180.21253967,0,0,0
1314270624.35380268,-0.00007261,0.00007651,179.98455811,0,0,0
1314270624.40054011,-0.00007256,0.00007646,179.75610352,0,0,0
1314270624.45257807,-0.00007261,0.00007650,179.52807617,0,0,0
1314270624.50208020,-0.00007256,0.00007646,179.29953003,0,0,0
1314270624.55258918,-0.00007261,0.00007650,179.07141113,0,0,0
1314270624.60046029,-0.00007257,0.00007645,178.84281921,0,0,0
1314270624.65349221,-0.00007261,0.00007649,178.61462402,0,0,0
1314270624.70048261,-0.00007257,0.00007644,178.38594055,0,0,0
1314270624.74966407,-0.00007261,0.00007649,178.15765381,0,0,0
1314270624.80048108,-0.00007257,0.00007644,177.92889404,0,0,0
1314270624.85248375,-0.00007261,0.00007648,177.70054626,0,0,0
1314270624.90325594,-0.00007257,0.00007643,177.47172546,0,0,0
1314270624.95258451,-0.00007261,0.00007647,177.24331665,0,0,0
1314270625.00052762,-0.00007257,0.00007642,177.01443481,0,0,0
1314270625.05349755,-0.00007261,0.00007647,176.78594971,0,0,0
1314270625.10050082,-0.00007257,0.00007642,176.55697632,0,0,0
1314270625.15355325,-0.00007261,0.00007646,176.32838440,0,0,0
1314270625.20083570,-0.00007257,0.00007641,176.09933472,0,0,0
1314270625.25246930,-0.00007262,0.00007646,175.87065125,0,0,0
1314270625.30426908,-0.00007258,0.00007641,175.64149475,0,0,0
1314270625.35247278,-0.00007262,0.00007645,175.41275024,0,0,0
1314270625.40145421,-0.00007258,0.00007640,175.18353271,0,0,0
1314270625.45246577,-0.00007262,0.00007644,174.95471191,0,0,0
1314270625.50050640,-0.00007258,0.00007639,174.72541809,0,0,0
1314270625.54953575,-0.00007262,0.00007644,174.49655151,0,0,0
1314270625.60049939,-0.00007258,0.00007639,174.26721191,0,0,0
1314270625.64949059,-0.00007262,0.00007643,174.03826904,0,0,0
1314270625.70045352,-0.00007258,0.00007638,173.80885315,0,0,0
1314270625.75245762,-0.00007262,0.00007643,173.57980347,0,0,0
1314270625.80146718,-0.00007258,0.00007637,173.35031128,0,0,0
1314270625.85245085,-0.00007262,0.00007642,173.12121582,0,0,0
1314270625.90101409,-0.00007259,0.00007637,172.89166260,0,0,0
1314270625.94968247,-0.00007263,0.00007641,172.66249084,0,0,0
1314270626.00154114,-0.00007259,0.00007636,172.43289185,0,0,0
1314270626.04943657,-0.00007263,0.00007641,172.20367432,0,0,0
1314270626.10047793,-0.00007259,0.00007636,171.97401428,0,0,0
1314270626.15250063,-0.00007263,0.00007640,171.74475098,0,0,0
1314270626.20049739,-0.00007259,0.00007635,171.51506042,0,0,0
1314270626.25243902,-0.00007263,0.00007639,171.28576660,0,0,0
1314270626.30147886,-0.00007259,0.00007634,171.05604553,0,0,0
1314270626.34957457,-0.00007263,0.00007639,170.82670593,0,0,0
1314270626.40465474,-0.00007259,0.00007634,170.59690857,0,0,0
1314270626.45359397,-0.00007263,0.00007638,170.36750793,0,0,0
1314270626.50449157,-0.00007260,0.00007633,170.13764954,0,0,0
1314270626.54946184,-0.00007264,0.00007638,169.90814209,0,0,0
1314270626.60045981,-0.00007260,0.00007632,169.67819214,0,0,0
1314270626.65247369,-0.00007264,0.00007637,169.44863892,0,0,0
1314270626.70105290,-0.00007260,0.00007632,169.21864319,0,0,0
1314270626.75008917,-0.00007264,0.00007636,168.98902893,0,0,0
1314270626.80046606,-0.00007260,0.00007631,168.75895691,0,0,0
1314270626.85345674,-0.00007264,0.00007636,168.52928162,0,0,0
1314270626.90280843,-0.00007260,0.00007630,168.29914856,0,0,0
1314270626.94945288,-0.00007264,0.00007635,168.06941223,0,0,0
1314270627.00044179,-0.00007261,0.00007630,167.83920288,0,0,0
1314270627.05248141,-0.00007264,0.00007635,167.60937500,0,0,0
1314270627.10146451,-0.00007261,0.00007629,167.37908936,0,0,0
1314270627.14995575,-0.00007265,0.00007634,167.14916992,0,0,0
1314270627.20048237,-0.00007261,0.00007629,166.91879272,0,0,0
1314270627.25305486,-0.00007265,0.00007633,166.68879700,0,0,0
1314270627.30244279,-0.00007261,0.00007628,166.45835876,0,0,0
1314270627.35246110,-0.00007265,0.00007633,166.22828674,0,0,0
1314270627.40142894,-0.00007261,0.00007627,165.99778748,0,0,0
1314270627.45245337,-0.00007265,0.00007632,165.76765442,0,0,0
1314270627.50065994,-0.00007262,0.00007627,165.53710938,0,0,0
1314270627.54982162,-0.00007265,0.00007632,165.30694580,0,0,0
1314270627.60151529,-0.00007262,0.00007626,165.07632446,0,0,0
1314270627.65360236,-0.00007265,0.00007631,164.84609985,0,0,0
1314270627.70254183,-0.00007262,0.00007626,164.61544800,0,0,0
1314270627.75361300,-0.00007266,0.00007630,164.38516235,0,0,0
1314270627.80045724,-0.00007262,0.00007625,164.15443420,0,0,0
1314270627.85348439,-0.00007266,0.00007630,163.92408752,0,0,0
1314270627.90052700,-0.00007262,0.00007624,163.69328308,0,0,0
1314270627.94967771,-0.00007266,0.00007629,163.46286011,0,0,0
1314270628.00049973,-0.00007263,0.00007624,163.23197937,0,0,0
1314270628.04960346,-0.00007266,0.00007629,163.00146484,0,0,0
1314270628.10045385,-0.00007263,0.00007623,162.77049255,0,0,0
1314270628.15005755,-0.00007266,0.00007628,162.53991699,0,0,0
